Location: Newark
(48.1281°N, 2.1556°W)
Time: 23:24:21
(UTC+00:00)

Envisat - Pass Details

Date: 29 November 2019
Orbit: 764 x 766 km, 98.1° (Epoch: 09 December)

Event Time Altitude Azimuth Distance (km) Brightness Sun altitude
Rises 19:25:29 0° 211° (SSW) 3,221 6.6 -30.5°
Reaches altitude 10° 19:28:37 10° 232° (SW) 2,300 6.0 -31.0°
Maximum altitude 19:31:49 17° 272° (W) 1,882 5.8 -31.5°
Drops below altitude 10° 19:35:02 10° 311° (NW) 2,311 6.0 -32.1°
Sets 19:38:13 0° 332° (NNW) 3,243 6.6 -32.6°
